Location: Dehesa de la Cepeda
(40.6574°N, 4.3013°W)
Time: 02:55:35
(UTC+00:00)

Courier 1B - Pass Details

Date: 08 August 2021
Orbit: 963 x 1209 km, 28.3° (Epoch: 17 September)

Event Time Altitude Azimuth Distance (km) Brightness Sun altitude
Rises 14:16:53 0° 198° (SSW) 3,899 11.1 55.1°
Reaches altitude 10° 14:22:26 10° 164° (SSE) 3,015 10.4 54.2°
Maximum altitude 14:24:09 11° 151° (SSE) 2,969 10.2 54.0°
Drops below altitude 10° 14:25:54 10° 137° (SE) 3,055 10.2 53.7°
Sets 14:31:39 0° 104° (ESE) 4,072 10.5 52.8°
